User: anonymous   Login
Location: Unspecified
(0.0000°N, 0.0000°E)
Time: 21:55:26
(UTC+00:00)
Language:

ICEYE-X2 - Orbit

View from above orbital plane
View from above orbital plane
View from above satellite
View from above satellite

Ground track
Ground track

The orbit data is extracted from the following two-line orbital elements,

1 43761U 18099D   24104.15722068  .00003121  00000-0  25824-3 0  9991
2 43761  97.5253 160.9762 0014570 184.9569 175.1512 14.99528447292642
Epoch (UTC): 13 April 2024 03:46:23
Eccentricity: 0.0014570
inclination: 97.5253°
perigee height: 558 km
apogee height: 578 km
right ascension of ascending node: 160.9762°
argument of perigee: 184.9569°
revolutions per day: 14.99528447
mean anomaly at epoch: 175.1512°
orbit number at epoch: 29264

The dashed part of the orbit path shows where the satellite is in the earth's shadow,  

DLR